This demonstration page uses our WeatherBlox Daily Observations layout. Learn more.

Left ArrowRight Arrow

Hourly Observations for April 21, 2019

Temp ( °F °C ) Dew Point ( °F °C ) Humidity (%) Winds ( mph kmh ) Pressure ( in mb ) Visibility ( mi km ) Precip ( " mm )
12:53 am 00:53 Clear 68 20 44 6.7 42 42 S 7 11 29.72 1006 10 16 0.00 0.00
1:53 am 01:53 Clear 68 20 43 6.1 40 40 SE 14 22 29.68 1005 10 16 0.00 0.00
2:53 am 02:53 Clear 67 19.4 42 5.6 41 41 SSE 9 15 29.67 1005 10 16 0.00 0.00
3:53 am 03:53 Clear 64 17.8 42 5.6 45 45 SSE 12 19 29.67 1005 10 16 0.00 0.00
4:53 am 04:53 Clear 63 17.2 43 6.1 48 48 SSE 8 13 29.69 1005 10 16 0.00 0.00
5:53 am 05:53 Clear 59 15 43 6.1 56 56 SE 5 7 29.70 1006 10 16 0.00 0.00
6:53 am 06:53 Clear 58 14.4 45 7.2 62 62 SSE 5 7 29.72 1007 10 16 0.00 0.00
7:53 am 07:53 Sunny 58 14.4 46 7.8 65 65 SSE 6 9 29.77 1008 10 16 0.00 0.00
8:53 am 08:53 Sunny 65 18.3 48 8.9 54 54 SSE 6 9 29.79 1009 10 16 0.00 0.00
9:53 am 09:53 Sunny 71 21.7 47 8.3 42 42 S 6 9 29.79 1009 10 16 0.00 0.00
10:53 am 10:53 Sunny 79 26.1 39 3.9 24 24 W 5 7 29.79 1009 10 16 0.00 0.00
11:53 am 11:53 Sunny 84 28.9 29 -1.7 13 13 VRB 7 11 29.79 1009 10 16 0.00 0.00
12:53 pm 12:53 Sunny 87 30.6 28 -2.2 12 12 W 12 19 29.78 1008 10 16 0.00 0.00
1:53 pm 13:53 Sunny 90 32.2 29 -1.7 11 11 WSW 24 39 29.74 1007 10 16 0.00 0.00
2:10 pm 14:10 Sunny 89 31.7 27 -2.8 11 11 W 17 28 29.66 1004 10 16 0.00 0.00
2:53 pm 14:53 Sunny 90 32.2 28 -2.2 11 11 WSW 15 24 29.73 1007 10 16 0.00 0.00
3:53 pm 15:53 Sunny 91 32.8 30 -1.1 11 11 WSW 18 30 29.70 1006 10 16 0.00 0.00
4:53 pm 16:53 Sunny 91 32.8 30 -1.1 11 11 SW 14 22 29.68 1005 10 16 0.00 0.00
5:53 pm 17:53 Sunny 90 32.2 29 -1.7 11 11 SW 7 11 29.68 1005 10 16 0.00 0.00
6:53 pm 18:53 Sunny 90 32.2 27 -2.8 10 10 WSW 12 19 29.69 1005 10 16 0.00 0.00
7:53 pm 19:53 Sunny 87 30.6 30 -1.1 13 13 SW 5 7 29.69 1006 10 16 0.00 0.00
8:53 pm 20:53 Clear 80 26.7 32 0 17 17 SW 7 11 29.71 1006 10 16 0.00 0.00
9:53 pm 21:53 Clear 75 23.9 35 1.7 23 23 SSE 10 17 29.74 1007 10 16 0.00 0.00
10:53 pm 22:53 Clear 76 24.4 52 11.1 43 43 SE 12 19 29.76 1008 10 16 0.00 0.00
11:53 pm 23:53 Clear 72 22.2 54 12.2 53 53 SE 13 20 29.76 1008 10 16 0.00 0.00

Powered by AerisWeather